Temp
61 61 61 61 61 61 61 61 60 61 61 62 62 61 61 61 61 61 62 62 62 62 62 62 63 63 59 54 52 64 68 67 64 63 58 57 55 53 50 52 53 51 52 55 54 54 53
61 61 61 61 61 60 61 60 60 60 61 61 61 61 60 60 61 61 61 61 62 62 62 63 63 63 55 48 62 63 62 63 62 61 57 57 54 54 52 50 50 51 51 52 52 53 54
61 60 60 60 60 60 60 60 60 60 60 61 61 60 60 60 60 61 61 61 62 62 62 63 64 60 54 50 61 61 63 60 60 60 56 57 56 55 53 49 52 51 49 50 50 51 50
60 60 60 60 60 60 60 60 59 59 60 60 60 60 60 60 60 60 60 61 61 61 62 63 64 56 48 61 60 62 62 60 62 62 59 58 58 55 52 52 49 46 45 43 50 51 50
60 60 60 59 59 60 60 59 59 59 60 60 59 59 59 59 59 59 60 61 61 62 63 63 55 54 46 64 58 60 60 57 58 59 59 62 56 49 50 45 42 41 40 42 45 50 50
60 60 59 59 59 59 59 59 59 59 59 59 59 58 58 59 59 59 60 61 62 61 60 61 59 51 54 51 56 58 59 59 55 54 54 53 47 43 42 42 38 39 39 39 41 47 46
61 60 59 59 58 59 59 59 58 59 59 58 58 58 58 58 59 59 55 53 52 51 52 46 46 48 51 57 58 56 57 55 54 51 43 46 43 40 42 43 42 41 40 40 43 46 43
61 60 59 58 58 58 58 58 58 58 58 58 57 57 58 58 59 59 51 47 43 46 43 50 51 51 54 54 49 54 57 49 48 41 44 42 39 43 46 44 43 41 39 39 41 44 43
61 60 59 58 58 58 58 57 57 58 57 57 57 57 57 58 59 52 47 45 49 48 44 47 50 50 50 53 46 49 53 48 45 41 40 39 42 46 45 41 40 38 37 36 38 40 38
61 60 60 59 58 57 57 57 57 57 57 56 56 57 57 57 54 46 45 49 49 48 37 41 46 49 52 50 45 53 52 48 45 40 39 39 43 42 40 40 40 37 40 40 38 37 33
61 61 60 59 58 57 57 57 57 57 56 56 56 56 57 56 48 46 47 48 48 47 25 43 46 55 50 47 45 48 50 49 40 40 41 39 38 38 38 40 41 38 42 38 39 35 32
61 61 60 58 58 57 56 56 56 56 56 55 55 56 56 50 47 46 48 47 48 38 26 39 44 43 43 44 44 47 46 48 45 40 39 38 42 40 40 41 41 42 38 35 32 31 23
61 60 59 59 58 57 56 56 56 56 56 55 55 55 52 50 46 47 47 46 38 29 41 38 38 42 39 38 40 40 38 35 37 33 33 37 38 40 42 38 40 39 34 27 24 22 24
60 60 59 59 58 57 56 56 56 56 55 55 55 53 51 49 45 46 45 44 33 37 36 40 39 39 36 37 36 37 36 33 32 32 30 29 29 36 39 37 37 36 35 29 24 21 26
60 60 59 59 58 57 56 55 55 55 55 55 53 44 44 46 47 45 44 31 35 36 38 38 38 33 33 36 34 34 30 31 30 30 32 29 31 36 38 37 38 35 32 36 31 26 19
59 59 59 59 58 57 56 55 55 55 55 54 43 42 43 45 45 45 40 39 36 38 39 38 36 34 31 32 32 30 31 31 32 32 31 29 28 33 36 37 37 36 38 29 30 20 17
59 59 59 58 58 57 56 55 55 55 55 53 42 43 45 44 44 41 35 35 36 39 39 37 34 33 32 31 31 29 30 31 32 31 31 29 29 29 32 31 30 31 30 31 31 28 22
59 59 58 57 56 56 55 55 55 55 55 48 41 40 45 45 39 31 34 36 41 37 38 36 34 33 32 31 29 28 30 29 33 33 29 29 27 23 27 28 30 28 28 30 25 21 19
59 59 58 57 55 53 54 54 54 55 54 44 42 42 46 46 35 33 32 34 35 35 35 35 33 34 32 31 30 30 29 33 34 33 30 31 26 19 24 25 27 25 26 26 22 21 16
57 59 58 56 54 53 52 53 54 54 54 47 43 41 43 40 33 34 33 34 34 35 34 35 34 35 32 31 32 29 28 32 33 34 41 37 26 26 24 23 24 22 24 26 23 14 19
57 57 58 56 55 53 52 53 53 54 54 47 43 41 39 38 35 32 33 35 33 33 33 35 32 34 33 28 27 28 29 28 32 37 33 32 22 21 24 25 25 24 25 24 21 22 16
57 57 58 56 55 53 52 52 53 53 54 45 40 39 37 36 37 33 34 32 34 32 33 31 31 32 32 29 28 26 28 28 27 27 29 28 23 21 17 23 23 20 23 23 24 24 21
56 56 57 56 54 53 51 52 52 54 52 41 39 41 44 37 32 31 31 32 34 34 31 32 32 31 30 31 31 30 29 29 29 26 25 25 22 18 13 18 19 15 14 18 19 16 16
55 56 57 56 54 52 51 50 51 53 50 44 40 42 39 34 35 35 35 34 31 32 29 29 31 30 31 35 34 31 29 28 28 25 28 22 22 21 13 15 4 13 17 16 14 13 8
55 55 56 56 54 53 51 50 50 51 51 43 40 42 39 33 34 33 33 31 30 28 28 29 30 30 35 32 26 23 22 22 23 24 25 25 23 17 12 10 14 12 14 13 10 11 7
55 55 55 55 54 52 51 51 50 50 51 43 40 40 41 34 30 31 31 31 27 25 25 29 34 34 31 31 29 20 19 20 17 18 25 25 19 16 11 7 6 9 17 18 9 5 9
55 55 55 55 53 52 51 50 49 50 51 43 38 39 38 29 28 28 28 29 32 28 24 26 28 29 32 26 24 20 18 21 15 14 14 13 13 10 11 8 10 13 19 19 1 4 13
54 54 55 55 53 51 49 48 49 49 49 42 36 38 36 26 26 28 29 28 29 28 23 25 26 26 25 23 23 16 13 17 15 15 14 14 12 9 9 7 2 16 16 10 11 13 14
54 55 54 53 51 49 48 48 49 49 48 44 34 40 40 30 28 33 32 34 31 31 29 27 26 25 25 20 20 18 16 14 10 7 15 10 13 11 13 11 12 14 15 15 14 12 13
MSLP
1022.98 1022.93 1022.73 1022.62 1022.55 1022.45 1022.23 1022.06 1021.91 1021.75 1021.48 1021.23 1020.88 1020.64 1020.41 1020.03 1019.68 1019.36 1018.98 1018.60 1018.37 1018.20 1018.15 1018.04 1017.79 1017.65 1017.54 1017.86 1018.63 1018.26 1017.92 1017.52 1017.16 1017.12 1017.53 1017.57 1017.78 1018.13 1018.57 1018.76 1019.00 1019.39 1019.74 1019.77 1020.00 1020.22 1021.33
1022.90 1022.94 1022.87 1022.75 1022.64 1022.51 1022.37 1022.30 1022.14 1021.95 1021.61 1021.23 1020.93 1020.67 1020.31 1019.93 1019.63 1019.34 1018.92 1018.59 1018.39 1018.22 1018.18 1018.01 1017.75 1017.55 1017.68 1018.34 1018.74 1018.54 1018.17 1017.77 1017.80 1017.76 1018.06 1018.09 1018.30 1018.35 1018.82 1019.28 1019.38 1019.64 1019.81 1020.03 1020.30 1020.67 1021.37
1022.91 1023.01 1023.00 1022.84 1022.70 1022.63 1022.63 1022.54 1022.29 1022.06 1021.72 1021.37 1021.02 1020.64 1020.24 1019.92 1019.58 1019.23 1018.89 1018.62 1018.44 1018.33 1018.21 1018.02 1017.76 1017.62 1018.28 1019.19 1018.80 1018.48 1018.18 1018.12 1018.06 1017.99 1018.29 1018.50 1018.53 1018.63 1019.04 1019.59 1019.86 1019.93 1019.95 1019.96 1020.34 1020.72 1021.96
1022.93 1023.04 1023.06 1022.99 1022.84 1022.85 1022.82 1022.70 1022.42 1022.12 1021.71 1021.38 1021.05 1020.71 1020.31 1019.89 1019.50 1019.19 1018.92 1018.62 1018.44 1018.28 1018.12 1018.00 1017.81 1017.84 1018.85 1018.70 1018.69 1018.53 1018.32 1018.32 1018.26 1018.16 1018.36 1018.54 1018.58 1019.05 1019.54 1019.98 1020.32 1020.48 1020.42 1020.62 1020.56 1020.90 1021.77
1023.04 1023.07 1023.06 1023.16 1023.03 1022.94 1022.89 1022.79 1022.52 1022.07 1021.64 1021.34 1021.09 1020.76 1020.29 1019.87 1019.50 1019.14 1018.81 1018.50 1018.34 1018.18 1018.02 1017.89 1018.02 1017.92 1018.98 1018.55 1018.69 1018.74 1018.55 1018.56 1018.49 1018.53 1018.64 1018.60 1018.89 1020.05 1020.24 1020.61 1021.19 1021.33 1021.20 1021.06 1020.87 1021.05 1021.94
1023.09 1023.17 1023.11 1023.11 1023.09 1022.98 1022.85 1022.71 1022.45 1022.10 1021.75 1021.41 1021.05 1020.72 1020.31 1019.93 1019.51 1019.05 1018.66 1018.47 1018.30 1018.15 1018.11 1017.97 1018.26 1018.72 1019.08 1019.33 1019.06 1018.94 1018.73 1018.70 1018.83 1018.91 1019.11 1019.47 1020.25 1020.75 1021.06 1021.12 1021.45 1021.40 1021.42 1021.30 1021.20 1021.56 1022.34
1023.11 1023.17 1023.18 1023.12 1023.04 1022.99 1022.81 1022.61 1022.35 1022.05 1021.80 1021.49 1021.09 1020.72 1020.33 1019.85 1019.38 1019.02 1018.73 1018.67 1019.25 1019.25 1019.08 1019.42 1019.55 1019.49 1019.41 1019.27 1019.15 1019.23 1019.17 1019.02 1019.00 1019.29 1019.94 1020.33 1020.69 1021.02 1021.09 1021.02 1021.15 1021.17 1021.25 1021.32 1021.27 1021.70 1022.72
1023.06 1023.17 1023.15 1023.08 1022.97 1022.87 1022.82 1022.65 1022.36 1022.04 1021.80 1021.57 1021.15 1020.75 1020.21 1019.77 1019.36 1019.20 1019.35 1020.18 1021.06 1021.33 1020.61 1019.97 1019.64 1019.54 1019.44 1019.48 1019.51 1019.50 1019.37 1019.57 1019.58 1020.15 1020.37 1020.78 1020.79 1020.73 1020.75 1020.92 1020.92 1021.34 1021.74 1021.81 1021.82 1022.22 1023.20
1022.59 1022.97 1023.12 1023.10 1022.95 1022.83 1022.75 1022.66 1022.42 1022.11 1021.85 1021.58 1021.22 1020.70 1020.16 1019.57 1019.29 1019.67 1020.72 1021.52 1021.51 1021.40 1020.87 1020.23 1019.74 1019.56 1019.65 1019.63 1020.02 1020.19 1020.13 1020.17 1020.30 1020.61 1020.90 1021.04 1021.14 1021.07 1021.09 1021.24 1021.44 1021.61 1021.91 1022.17 1022.59 1022.99 1024.07
1022.25 1022.45 1022.79 1022.99 1023.00 1022.92 1022.78 1022.55 1022.38 1022.11 1021.82 1021.49 1021.15 1020.74 1020.10 1019.36 1019.74 1020.82 1021.45 1021.67 1021.50 1021.55 1021.29 1020.59 1019.88 1019.65 1019.71 1019.83 1020.48 1020.58 1020.68 1020.91 1020.99 1021.24 1021.40 1021.60 1021.47 1021.53 1021.62 1021.86 1022.02 1022.15 1021.97 1022.40 1023.02 1023.88 1024.81
1021.91 1022.18 1022.38 1022.63 1022.89 1023.00 1022.86 1022.58 1022.37 1022.10 1021.81 1021.45 1021.08 1020.80 1020.34 1019.46 1020.43 1021.28 1021.73 1021.49 1021.31 1021.35 1022.02 1021.07 1020.08 1019.63 1019.83 1020.38 1020.97 1021.03 1021.22 1020.90 1021.52 1021.86 1022.04 1022.17 1022.04 1022.04 1022.10 1022.03 1022.10 1022.51 1022.52 1023.14 1023.65 1024.38 1025.25
1021.49 1021.84 1022.10 1022.21 1022.42 1022.74 1022.91 1022.76 1022.44 1022.12 1021.83 1021.48 1021.11 1020.73 1020.42 1020.58 1021.03 1021.46 1021.31 1021.24 1021.34 1021.42 1021.20 1020.72 1020.27 1020.10 1020.30 1020.60 1021.10 1021.27 1021.40 1021.43 1021.80 1022.03 1022.22 1022.25 1022.20 1022.17 1022.21 1022.33 1022.43 1022.69 1023.21 1024.02 1024.71 1025.28 1025.64
1021.00 1021.37 1021.76 1022.02 1022.13 1022.18 1022.52 1022.68 1022.60 1022.23 1021.81 1021.51 1021.10 1020.89 1020.59 1021.05 1021.64 1021.39 1021.25 1021.29 1021.75 1021.55 1021.47 1021.34 1020.94 1020.79 1021.03 1021.30 1021.67 1021.98 1022.31 1022.72 1023.04 1023.08 1023.22 1022.84 1022.63 1022.51 1022.51 1022.76 1022.87 1023.01 1023.71 1024.43 1025.03 1025.70 1025.23
1020.47 1020.85 1021.28 1021.62 1021.91 1022.05 1022.04 1022.21 1022.34 1022.27 1021.96 1021.57 1021.20 1021.00 1021.41 1021.62 1021.65 1021.49 1021.38 1021.58 1021.93 1021.63 1021.33 1021.32 1021.25 1021.17 1021.56 1021.80 1022.21 1022.51 1022.90 1023.51 1023.76 1023.71 1024.05 1023.81 1023.47 1023.27 1023.28 1023.24 1023.25 1023.63 1023.95 1024.52 1024.75 1025.39 1025.60
1019.88 1020.30 1020.74 1021.25 1021.53 1021.80 1021.97 1021.93 1022.01 1022.03 1022.00 1021.72 1021.33 1021.59 1021.80 1021.87 1021.56 1021.48 1021.74 1022.44 1021.91 1021.80 1021.69 1021.58 1021.61 1021.64 1021.92 1022.25 1022.59 1022.98 1023.63 1024.20 1024.60 1024.63 1024.71 1024.67 1024.21 1023.84 1023.75 1023.81 1023.99 1024.19 1024.33 1024.59 1024.97 1025.60 1026.19
1019.30 1019.80 1020.27 1020.72 1021.12 1021.50 1021.79 1021.90 1021.98 1021.98 1021.86 1021.65 1021.92 1022.21 1022.41 1022.10 1021.84 1021.67 1022.39 1022.56 1022.37 1022.27 1022.15 1022.06 1022.15 1022.16 1022.47 1022.69 1023.23 1023.68 1023.90 1024.77 1025.34 1025.50 1025.45 1025.49 1025.34 1024.79 1024.53 1024.53 1024.73 1024.58 1024.73 1025.23 1025.84 1026.56 1026.59
1018.55 1019.10 1019.71 1020.19 1020.65 1021.21 1021.57 1021.75 1021.76 1021.78 1021.72 1021.57 1022.19 1022.51 1022.49 1022.27 1022.13 1022.14 1023.27 1023.08 1022.74 1022.81 1022.65 1022.62 1022.61 1022.75 1022.92 1023.19 1023.73 1024.41 1024.78 1025.53 1025.71 1026.06 1026.05 1026.25 1026.39 1026.06 1025.66 1025.79 1025.72 1025.84 1025.78 1026.12 1026.53 1027.19 1028.07
1018.03 1018.43 1018.93 1019.63 1020.34 1020.94 1021.27 1021.45 1021.52 1021.60 1021.55 1021.65 1022.30 1022.95 1022.67 1022.23 1023.11 1023.41 1023.55 1023.24 1023.31 1023.32 1023.30 1023.28 1023.27 1023.44 1023.66 1023.90 1024.45 1025.03 1025.46 1026.09 1026.32 1026.39 1026.61 1026.78 1027.13 1027.15 1026.92 1027.29 1027.33 1027.20 1027.15 1027.20 1027.79 1028.39 1029.28
1017.51 1017.94 1018.43 1019.06 1019.93 1020.52 1020.92 1021.21 1021.27 1021.44 1021.36 1021.88 1022.43 1022.87 1022.71 1022.55 1023.41 1023.87 1023.79 1023.74 1023.71 1023.69 1023.63 1023.74 1023.86 1023.95 1024.12 1024.41 1025.08 1025.26 1025.80 1026.68 1026.88 1027.03 1027.03 1027.15 1027.63 1027.85 1027.77 1028.49 1028.30 1028.46 1028.48 1028.74 1029.41 1029.87 1030.19
1017.30 1017.42 1017.97 1018.61 1019.36 1019.91 1020.38 1020.52 1021.01 1021.32 1021.33 1021.73 1022.41 1022.91 1023.16 1023.31 1023.95 1023.68 1023.91 1023.83 1024.03 1024.06 1024.12 1024.09 1024.17 1024.34 1024.64 1024.88 1025.22 1025.78 1026.43 1026.97 1027.13 1027.24 1027.22 1027.43 1028.13 1028.39 1028.69 1028.73 1028.92 1029.37 1029.33 1029.64 1030.16 1030.95 1030.76
1017.13 1017.16 1017.34 1018.12 1018.86 1019.56 1020.19 1020.16 1020.42 1020.72 1021.30 1021.64 1022.25 1022.91 1023.22 1023.59 1023.68 1023.71 1023.71 1023.77 1024.00 1024.33 1024.51 1024.54 1024.71 1024.64 1024.92 1025.65 1026.03 1026.44 1027.11 1027.62 1027.84 1027.80 1028.15 1028.36 1028.85 1029.05 1029.11 1029.48 1029.73 1029.85 1030.14 1030.44 1030.71 1031.02 1032.13
1017.26 1017.22 1017.09 1017.36 1018.18 1018.97 1019.69 1020.04 1020.06 1020.33 1020.88 1021.46 1022.09 1022.77 1023.57 1023.60 1023.87 1024.06 1023.96 1024.18 1024.15 1024.46 1024.73 1025.04 1025.11 1025.04 1025.50 1026.11 1026.58 1027.01 1027.53 1027.96 1028.09 1028.72 1028.86 1029.36 1029.59 1029.96 1030.06 1030.26 1030.64 1030.77 1030.77 1030.91 1031.56 1032.03 1032.89
1017.22 1017.09 1016.81 1016.84 1017.50 1018.36 1019.06 1019.74 1019.91 1020.06 1020.52 1021.24 1022.25 1022.34 1022.30 1023.65 1024.28 1024.58 1024.31 1024.21 1024.40 1024.48 1025.47 1025.48 1025.31 1025.40 1026.03 1026.66 1027.03 1027.53 1027.90 1028.31 1028.48 1029.02 1029.64 1030.20 1030.64 1031.25 1031.15 1031.36 1031.70 1031.82 1031.90 1032.20 1032.73 1033.57 1034.63
1016.85 1016.68 1016.33 1016.33 1016.99 1017.86 1018.52 1019.25 1019.72 1019.91 1020.14 1020.59 1021.43 1021.71 1022.69 1023.48 1023.96 1024.28 1024.51 1024.87 1025.21 1025.52 1025.96 1026.40 1026.12 1026.11 1026.94 1027.20 1027.58 1027.81 1028.35 1028.93 1029.23 1029.70 1029.90 1030.66 1031.27 1031.80 1032.08 1032.41 1032.76 1033.13 1033.49 1033.98 1034.75 1035.60 1036.50
1016.60 1016.32 1016.11 1016.05 1016.76 1017.47 1018.08 1018.94 1019.45 1019.90 1020.04 1020.72 1021.39 1021.45 1022.00 1023.07 1023.83 1024.50 1024.90 1025.59 1026.23 1026.64 1027.04 1027.03 1027.21 1027.28 1026.97 1027.46 1028.06 1028.61 1029.19 1029.95 1030.35 1030.65 1030.71 1030.99 1031.75 1032.52 1033.26 1033.80 1033.18 1033.94 1034.53 1035.22 1035.97 1037.06 1037.84
1016.20 1016.04 1015.94 1015.94 1016.37 1017.17 1018.06 1018.74 1019.09 1019.50 1020.03 1020.81 1021.56 1021.70 1021.78 1022.83 1024.96 1025.09 1025.63 1025.98 1026.48 1027.16 1027.94 1028.10 1028.10 1027.77 1027.53 1027.50 1028.04 1028.87 1029.30 1029.66 1030.69 1031.24 1031.42 1031.70 1032.20 1032.97 1034.14 1034.63 1034.38 1034.68 1035.38 1036.02 1036.91 1037.91 1038.26
1015.78 1015.59 1015.40 1015.61 1016.34 1017.27 1018.25 1018.76 1019.10 1019.87 1020.03 1020.52 1021.94 1022.29 1022.28 1023.88 1026.06 1025.99 1026.26 1026.47 1026.48 1027.00 1027.90 1028.45 1028.50 1028.32 1028.04 1027.91 1028.64 1029.46 1030.03 1030.41 1031.07 1031.62 1032.16 1032.73 1033.29 1033.94 1034.49 1034.98 1034.85 1035.36 1035.97 1036.57 1037.84 1038.81 1038.48
1014.89 1014.51 1014.22 1015.02 1016.41 1017.32 1018.37 1018.99 1019.40 1020.15 1020.42 1020.66 1022.44 1022.63 1022.77 1024.95 1026.78 1026.77 1026.99 1027.05 1027.04 1027.13 1027.60 1028.32 1029.00 1028.90 1028.99 1029.21 1029.63 1030.38 1030.81 1031.32 1031.85 1032.35 1032.78 1033.48 1033.90 1034.69 1035.44 1035.93 1036.06 1036.07 1036.74 1037.43 1038.00 1038.24 1038.68
1014.02 1013.66 1014.16 1015.22 1016.49 1017.64 1018.56 1018.83 1019.26 1020.00 1020.83 1020.31 1022.40 1022.83 1023.02 1024.56 1027.11 1027.32 1027.55 1027.56 1027.73 1027.58 1027.71 1028.44 1028.52 1028.60 1028.80 1029.76 1030.68 1031.25 1031.79 1032.52 1033.17 1033.86 1034.04 1034.73 1034.63 1034.92 1035.56 1035.86 1036.29 1036.73 1037.17 1037.59 1038.05 1038.58 1038.88
Wind_Speed
6 6 7 8 9 10 11 12 12 12 12 12 13 13 13 13 13 13 12 11 10 9 7 6 7 8 3 6 1 5 12 9 3 3 4 3 4 2 4 3 3 4 2 3 3 3 10
5 6 7 8 9 10 11 11 11 11 12 12 12 13 13 13 13 12 12 11 9 7 6 6 5 5 1 4 4 6 7 5 6 5 5 6 2 1 5 3 4 2 2 2 4 3 4
4 4 6 7 9 10 11 11 11 12 13 13 13 14 14 13 13 14 13 12 9 7 5 5 6 3 8 2 2 6 5 2 3 2 3 2 1 3 2 3 1 2 3 3 4 2 5
2 3 5 7 8 9 10 11 12 12 14 14 15 15 15 15 15 14 14 13 9 5 5 5 4 3 4 2 2 5 5 3 5 4 4 1 3 5 4 3 6 4 5 3 2 2 1
0 2 4 6 8 9 11 11 12 13 14 15 15 16 16 16 16 16 14 9 5 4 4 4 2 4 2 4 4 4 3 1 2 3 5 3 6 4 4 4 4 6 3 2 3 0 4
2 1 2 4 7 8 10 11 12 14 15 15 16 16 16 16 16 15 12 2 4 2 3 1 2 5 5 2 4 4 3 3 4 2 4 7 6 4 4 4 4 4 3 2 3 1 5
5 3 2 3 5 8 10 11 12 13 14 15 16 16 16 16 16 13 5 3 6 4 9 4 1 3 1 5 2 5 4 2 2 7 3 3 5 2 3 4 3 4 4 4 3 1 4
7 5 3 2 5 7 9 11 12 13 14 14 15 15 16 16 14 9 4 6 3 1 4 2 1 2 1 1 2 6 4 3 3 3 1 5 2 3 4 3 4 3 2 5 4 1 1
10 7 5 3 4 6 8 10 11 12 13 14 15 15 15 16 6 6 5 3 3 4 4 2 0 1 1 2 2 5 4 1 4 3 2 4 3 1 2 2 2 3 5 3 4 3 3
11 9 6 5 4 5 6 7 10 11 12 13 15 15 15 15 7 2 4 5 3 2 5 3 2 2 2 2 4 2 4 2 4 2 2 1 2 2 1 3 4 2 3 2 2 2 4
13 11 8 6 4 6 7 7 9 10 11 13 13 15 14 10 4 4 3 4 2 3 5 1 2 1 2 4 1 4 2 4 2 2 2 1 2 1 1 3 4 3 3 2 1 1 2
14 13 10 8 5 4 7 9 9 10 11 12 13 13 8 5 4 1 3 2 3 8 5 1 2 3 2 3 2 4 4 6 2 3 2 3 2 1 2 2 2 3 3 5 4 2 2
15 13 12 10 8 5 4 8 10 10 11 12 12 9 5 1 1 3 2 3 7 5 2 3 2 3 2 2 2 4 4 6 1 3 3 2 2 0 1 2 2 3 4 4 4 0 7
16 15 14 12 9 6 3 4 7 10 11 11 10 4 5 2 3 3 3 6 2 2 3 1 1 1 1 3 0 2 2 2 1 2 3 3 5 2 2 2 4 4 4 5 7 4 4
18 16 14 13 11 8 5 3 5 7 10 11 4 3 3 4 4 2 6 5 7 4 1 3 0 1 2 1 1 2 1 2 2 1 5 4 4 0 3 1 1 3 4 1 2 1 1
17 17 16 15 12 9 6 3 4 7 9 8 2 2 3 7 5 4 6 5 3 2 2 2 5 2 3 2 1 0 2 2 3 1 1 1 4 0 1 2 3 2 3 3 1 4 6
19 19 17 15 13 10 7 3 2 5 7 3 3 3 3 6 2 6 4 6 3 1 1 3 3 3 5 3 4 2 2 1 1 2 2 2 1 2 1 1 3 1 2 2 1 3 4
17 19 19 17 14 11 8 5 2 4 4 4 3 1 3 2 4 1 3 3 1 2 1 1 1 2 4 2 3 3 3 1 1 3 3 1 4 4 3 1 2 2 1 2 3 4 1
12 18 19 18 17 15 10 5 3 4 0 3 3 1 1 3 2 2 1 1 1 3 3 2 2 2 1 3 3 4 2 2 2 1 4 4 1 4 4 2 3 1 1 3 4 2 6
16 16 18 18 19 18 15 11 5 4 3 2 3 0 2 4 1 5 4 3 4 1 2 2 4 3 3 4 2 2 3 1 1 1 3 1 2 5 9 3 3 3 3 4 4 3 5
10 10 17 19 21 19 16 13 10 6 5 2 2 2 1 2 3 3 3 5 4 5 2 3 2 5 5 4 2 4 2 0 2 2 3 2 5 2 3 3 3 4 6 6 9 6 6
11 13 15 22 23 21 19 16 12 8 10 2 5 4 0 2 2 4 3 6 7 2 5 3 4 2 4 4 3 4 5 4 5 1 3 2 2 2 3 4 2 6 9 10 9 9 6
12 11 11 22 24 23 21 18 13 13 6 3 1 2 3 4 2 3 4 3 5 7 1 2 3 5 4 2 2 3 3 3 2 6 5 3 3 2 4 3 5 9 2 1 2 1 2
13 11 12 22 23 24 23 20 15 16 4 3 3 4 5 4 4 4 3 2 1 1 4 1 1 4 4 5 5 4 6 6 5 5 3 5 4 2 3 3 3 1 1 2 1 3 1
15 12 15 20 23 23 23 20 18 17 11 3 2 3 4 3 3 3 6 5 3 4 3 2 2 1 4 4 3 3 2 1 3 4 2 2 3 1 2 2 6 1 1 2 3 4 3
16 12 13 17 21 21 20 20 17 13 15 4 2 1 2 6 3 3 4 4 4 3 2 1 1 1 1 2 2 3 5 2 3 2 3 4 4 4 2 2 5 3 2 3 4 5 3
16 16 16 15 19 18 17 14 15 14 14 4 3 3 3 6 1 2 3 3 4 4 3 2 3 1 2 2 3 4 3 1 4 5 4 2 1 4 4 4 6 3 3 4 6 6 2
19 20 13 19 20 19 15 14 13 12 13 4 3 3 3 5 3 3 4 2 2 2 4 4 3 1 2 2 2 3 2 3 2 2 3 5 5 4 2 2 7 1 2 4 3 2 1
19 5 18 22 22 20 18 15 15 14 10 7 4 1 4 7 4 3 4 4 1 2 4 2 1 2 3 4 1 2 2 2 2 2 1 3 2 3 5 3 2 2 0 2 3 1 2
Wind_Direction
52 38 32 24 17 10 9 9 4 357 355 354 355 353 347 346 344 343 339 341 344 342 332 334 336 341 331 50 71 325 338 346 30 51 56 45 54 88 120 119 83 68 35 41 25 27 79
57 38 24 19 13 9 7 3 357 353 351 354 354 350 348 346 339 335 334 336 336 328 333 327 338 337 50 88 313 328 332 9 25 40 22 31 87 101 91 58 74 156 80 7 30 39 89
57 31 15 15 13 7 1 358 355 352 351 352 352 351 348 341 338 334 330 325 318 321 326 331 348 66 59 131 324 316 7 26 2 57 88 38 56 67 124 106 296 107 107 116 55 148 128
65 28 10 8 7 1 358 358 353 353 354 355 353 349 344 341 337 331 325 315 307 296 315 323 344 68 87 272 277 14 350 35 10 45 96 42 48 98 57 118 28 60 53 96 346 131 112
50 16 12 1 0 2 357 357 354 356 357 356 352 348 345 341 337 330 324 319 293 288 295 324 35 93 89 323 45 301 23 64 339 30 35 72 69 79 30 83 32 6 168 187 307 136 129
215 272 353 0 359 358 357 357 359 359 358 355 353 349 343 340 335 330 327 298 310 360 342 27 63 48 9 321 296 325 335 50 72 58 31 39 47 71 46 79 222 183 159 239 230 181 82
229 230 281 344 356 355 356 359 359 359 358 355 352 349 343 340 336 341 2 25 19 349 38 93 193 114 254 285 324 355 3 13 46 51 77 5 75 179 222 183 144 135 153 202 242 191 118
241 249 255 312 349 356 355 356 357 357 356 353 352 348 346 341 336 349 51 71 67 186 63 10 104 81 234 6 34 345 358 82 66 104 113 30 147 197 123 145 135 145 169 246 292 318 116
216 240 254 289 327 348 355 353 353 354 355 352 350 348 345 342 349 42 65 54 329 330 96 340 68 91 301 52 101 327 15 38 81 92 51 141 176 148 157 170 161 215 192 208 233 22 60
212 213 230 260 294 326 342 350 349 350 352 354 350 345 345 333 54 310 49 325 347 358 72 314 338 15 22 85 49 348 14 51 33 132 141 211 1 170 136 252 134 267 192 145 151 91 240
213 215 216 226 267 308 325 341 345 347 350 353 353 344 347 26 153 65 260 304 319 63 25 306 342 303 30 78 140 4 14 15 88 79 74 2 139 118 201 238 172 252 54 43 355 152 3
210 215 215 215 227 286 320 331 339 345 349 351 349 345 355 23 44 202 276 322 57 44 267 335 347 356 45 34 50 321 35 41 163 119 79 213 257 165 225 59 52 124 86 46 52 84 262
202 208 213 216 219 221 293 326 333 339 347 347 347 346 40 63 162 301 326 58 36 120 359 6 348 15 14 359 54 41 28 18 142 65 349 310 177 75 74 133 19 92 75 310 325 303 237
200 202 208 212 217 225 230 307 328 335 342 344 345 35 30 60 314 332 58 48 115 255 199 199 32 68 262 346 48 19 125 155 184 118 141 157 303 162 358 173 179 182 164 177 267 232 269
202 200 201 209 209 214 236 282 323 334 339 342 359 8 38 333 332 64 70 67 213 190 180 164 66 103 279 285 265 10 265 214 161 192 173 152 268 71 66 356 108 168 191 112 294 149 337
205 203 197 199 206 210 221 251 325 334 343 357 73 53 346 323 337 61 78 226 210 200 162 153 208 189 241 233 230 304 199 139 145 349 347 200 306 270 262 140 33 193 140 90 51 282 270
206 201 197 198 199 202 202 226 302 325 341 47 48 49 284 340 24 51 163 223 209 196 197 169 210 236 218 220 200 233 246 65 88 119 69 130 116 267 341 226 170 102 211 54 350 163 249
212 203 195 193 193 193 192 202 244 306 350 52 105 13 312 26 48 18 162 195 34 169 14 275 59 231 199 175 209 246 239 29 317 159 148 181 141 258 251 23 356 34 140 180 184 207 140
233 205 198 188 183 181 184 202 233 287 190 139 118 233 331 82 189 232 235 198 181 166 181 156 186 170 92 205 228 194 203 30 358 142 164 188 210 346 306 38 9 239 206 101 85 63 199
11 212 199 185 180 179 179 179 201 241 222 118 113 262 356 60 79 144 158 220 201 183 177 145 143 127 150 208 174 225 194 100 20 145 104 128 171 204 244 222 134 208 206 196 155 162 248
357 332 199 184 181 181 181 174 180 190 204 190 65 229 284 205 249 169 180 160 176 200 221 189 158 209 173 201 201 218 127 123 16 10 58 119 218 205 272 246 226 237 237 211 210 215 236
344 343 218 184 185 181 179 183 176 175 163 106 141 149 65 98 62 138 187 220 206 199 151 216 201 130 174 198 212 196 147 190 201 79 138 13 240 99 281 345 359 269 238 234 248 258 258
329 314 272 189 183 180 178 178 173 169 173 124 185 38 99 124 140 123 226 207 216 140 41 67 165 128 157 169 124 104 73 59 122 158 171 144 138 66 266 337 315 273 229 170 102 76 145
330 311 312 192 184 182 176 180 181 183 153 121 182 121 119 218 177 195 145 96 144 230 142 58 68 130 151 118 115 91 62 67 80 57 92 141 135 162 279 330 266 5 72 84 357 251 213
331 320 327 194 186 184 177 184 188 190 166 97 155 144 150 152 131 133 132 119 94 41 52 82 27 42 139 132 74 50 25 107 59 40 43 31 126 187 272 247 327 112 296 160 118 283 202
319 293 310 204 184 184 185 187 180 176 172 94 71 341 125 128 178 82 126 165 152 113 66 49 24 145 145 117 133 196 227 186 186 118 44 95 77 132 140 211 262 218 152 122 116 280 217
305 296 282 205 181 177 178 179 169 186 164 108 78 354 77 105 27 125 147 174 129 101 107 148 191 132 319 128 165 190 217 195 212 180 163 103 57 195 215 239 284 197 130 161 85 250 206
305 293 253 173 164 155 154 165 161 183 148 98 86 358 106 92 42 25 11 117 93 128 153 170 100 296 64 162 172 195 143 209 145 151 174 180 164 198 108 204 270 124 120 172 197 191 264
308 246 147 145 146 148 143 132 139 141 147 103 93 49 69 80 115 79 116 86 302 13 110 2 84 134 155 93 137 114 142 103 105 270 350 243 193 178 189 216 196 216 241 113 126 194 276